Vero Beach, FL

10:05 PM EST on February 19, 2017 (GMT -0500)
Vero Beach Municipal

Weather History for KVRB - June, 2012

Change the Weather History Date:

Saturday, June 9, 2012

  Actual Average Record
Temperature  
Mean Temperature 79 °F 80 °F  
Max Temperature 86 °F 88 °F 94 °F (1951)
Min Temperature 72 °F 72 °F 65 °F (1970)
Degree Days  
Heating Degree Days 0 0  
Month to date heating degree days 0 0  
Since 1 June heating degree days 0 0  
Since 1 July heating degree days 230 456  
Cooling Degree Days 14 15  
Month to date cooling degree days 138 130  
Year to date cooling degree days 1177 936  
Since 1 June cooling degree days 138 130  
Growing Degree Days 29 (Base 50)    
Moisture  
Dew Point 73 °F    
Average Humidity 83    
Maximum Humidity 100    
Minimum Humidity 65    
Precipitation  
Precipitation 0.14 in 0.22 in 3.10 in (1966)
Month to date precipitation 2.12 1.85  
Year to date precipitation 16.83 17.22  
Sea Level Pressure  
Sea Level Pressure 30.00 in    
Wind  
Wind Speed 6 mph (SE)    
Max Wind Speed 21 mph    
Max Gust Speed 25 mph    
Visibility 10 miles    
Events Rain , Thunderstorm    
T = Trace of Precipitation, MM = Missing Value Source: NWS Daily Summary

Daily Weather History Graph

Daily Weather History Graph

Search for Another Location

Airport or City:

Trip Planner

Search our weather history database for the weather conditions in past years. The results will help you decide how hot, cold, wet, or windy it might be!

Date:

Astronomy

Jun. 09, 2012 Rise Set
Actual Time 6:25 AM EDT 8:16 PM EDT
Civil Twilight 5:58 AM EDT 8:43 PM EDT
Nautical Twilight 5:26 AM EDT 9:15 PM EDT
Astronomical Twilight 4:53 AM EDT 9:49 PM EDT
Moon No Moon Rise 11:46 AM EDT (6/9)
Length of Visible Light 14h 44m
Length of Day
13h 51m
Waning Gibbous, 68% of the Moon is Illuminated
Jun 9
Waning Gibbous
Jun 11
Last Quarter
Jun 19
New
Jun 26
First Quarter
Jul 3
Full

Hourly Weather History & Observations

Time (EDT) Temp. Heat Index Dew Point Humidity Pressure Visibility Wind Dir Wind Speed Gust Speed Precip Events Conditions
12:53 AM 73.0 °F - 72.0 °F 96% 29.99 in 9.0 mi SW 3.5 mph - N/A   Partly Cloudy
1:53 AM 73.0 °F - 72.0 °F 96% 29.99 in 9.0 mi West 3.5 mph - N/A   Partly Cloudy
2:53 AM 72.0 °F - 71.1 °F 97% 29.98 in 10.0 mi WNW 3.5 mph - N/A   Scattered Clouds
3:53 AM 73.0 °F - 71.1 °F 93% 29.98 in 10.0 mi Calm Calm - N/A   Scattered Clouds
4:53 AM 73.0 °F - 71.1 °F 93% 29.97 in 9.0 mi SE 5.8 mph - 0.00 in Rain Light Rain
5:53 AM 72.0 °F - 71.1 °F 97% 29.97 in 10.0 mi SE 5.8 mph - 0.02 in   Partly Cloudy
6:34 AM 73.4 °F - 71.6 °F 94% 29.97 in 10.0 mi SE 5.8 mph - N/A   Mostly Cloudy
6:53 AM 73.0 °F - 71.1 °F 93% 29.98 in 10.0 mi SSE 5.8 mph - N/A   Partly Cloudy
7:53 AM 73.0 °F - 69.1 °F 87% 29.99 in 10.0 mi Calm Calm - N/A   Clear
8:53 AM 75.9 °F - 69.1 °F 79% 30.01 in 10.0 mi Calm Calm - N/A   Clear
9:53 AM 77.0 °F - 71.1 °F 82% 30.02 in 10.0 mi Calm Calm - N/A   Clear
10:53 AM 81.0 °F 84.4 °F 70.0 °F 69% 30.03 in 10.0 mi ESE 4.6 mph - N/A   Clear
11:53 AM 82.9 °F 88.0 °F 72.0 °F 69% 30.03 in 10.0 mi East 5.8 mph - N/A   Scattered Clouds
12:53 PM 84.0 °F 90.2 °F 73.0 °F 69% 30.03 in 10.0 mi ESE 10.4 mph - N/A   Partly Cloudy
1:53 PM 86.0 °F 93.0 °F 73.0 °F 65% 30.01 in 10.0 mi ESE 10.4 mph - N/A   Partly Cloudy
2:53 PM 84.9 °F 92.1 °F 73.9 °F 69% 29.99 in 10.0 mi East 12.7 mph - N/A   Scattered Clouds
3:53 PM 84.9 °F 93.3 °F 75.0 °F 72% 29.96 in 10.0 mi ESE 16.1 mph - N/A   Scattered Clouds
4:22 PM 84.2 °F 92.3 °F 75.2 °F 74% 29.98 in 10.0 mi ESE 15.0 mph 21.9 mph N/A   Mostly Cloudy
4:29 PM 84.2 °F 90.9 °F 73.4 °F 70% 29.98 in 10.0 mi ESE 18.4 mph - N/A   Scattered Clouds
4:53 PM 84.0 °F 90.2 °F 73.0 °F 69% 29.97 in 10.0 mi ESE 17.3 mph - N/A   Scattered Clouds
5:20 PM 84.2 °F 90.9 °F 73.4 °F 70% 29.97 in 10.0 mi ESE 18.4 mph - N/A Thunderstorm Partly Cloudy
5:53 PM 82.0 °F 86.7 °F 72.0 °F 71% 29.99 in 10.0 mi SE 17.3 mph - N/A Thunderstorm Clear
6:34 PM 80.6 °F 85.4 °F 73.4 °F 79% 30.01 in 10.0 mi SSW 15.0 mph 21.9 mph 0.00 in Rain Light Rain
6:42 PM 78.8 °F - 73.4 °F 83% 30.00 in 4.0 mi South 8.1 mph 20.7 mph 0.00 in Rain , Thunderstorm Rain
6:53 PM 77.0 °F - 73.0 °F 88% 30.00 in 4.0 mi SE 4.6 mph - 0.08 in Rain , Thunderstorm Thunderstorms and Rain
7:15 PM 77.0 °F - 73.4 °F 89% 29.99 in 10.0 mi SE 4.6 mph - 0.02 in Rain Light Rain
7:53 PM 77.0 °F - 73.9 °F 90% 30.01 in 10.0 mi Calm Calm - 0.02 in   Clear
8:53 PM 78.1 °F - 73.9 °F 87% 30.03 in 10.0 mi ESE 3.5 mph - 0.02 in Rain Light Rain
9:53 PM 78.1 °F - 75.0 °F 90% 30.05 in 10.0 mi Calm Calm - 0.00 in Rain Light Rain
10:53 PM 78.1 °F - 75.0 °F 90% 30.05 in 10.0 mi Calm Calm - 0.00 in   Overcast
11:53 PM 78.1 °F - 75.0 °F 90% 30.06 in 10.0 mi SSE 4.6 mph - N/A   Partly Cloudy